Regional Weather Roundup
Issued by NWS

Home | Current Version | Previous Version | Graphics & Text | Print | Product List | Glossary On
Versions: 1 2 3 4 5 6 7 8 9 10 11 12 13 14 15 16 17 18 19 20 21 22 23 24 25 26 27 28 29 30 31 32 33 34 35 36 37 38 39 40 41 42 43 44 45 46 47 48 49 50
000
ASUS43 KLMK 250002
RWRKY
KENTUCKY REGIONAL WEATHER ROUNDUP
NATIONAL WEATHER SERVICE LOUISVILLE KY
800 PM EDT WED AUG 24 2016

NOTE "FAIR" INDICATES FEW OR NO CLOUDS BELOW 12,000 FEET
WITH NO SIGNIFICANT WEATHER AND/OR OBSTRUCTIONS TO VISIBILITY.

KYZ001>023-026-027-061>063-070>075-250100-
WESTERN AND SOUTH CENTRAL KENTUCKY

CITY           SKY/WX    TMP DP  RH WIND       PRES   REMARKS
PADUCAH        CLEAR     86  73  65 SW6       30.05S HX  93
HENDERSON      CLEAR     86  72  62 S3        30.03S HX  92
OWENSBORO      CLOUDY    86  77  74 S9        30.06S HX  97
HOPKINSVILLE   CLOUDY    87  75  67 S6        30.09S HX  95
BOWLING GREEN  PTCLDY    87  72  60 SW8       30.11R HX  93
GLASGOW        PTCLDY    83  73  69 S3        30.13R
$$

KYZ024-025-028>034-038-045-046-053-250100-
NORTH CENTRAL KENTUCKY

CITY           SKY/WX    TMP DP  RH WIND       PRES   REMARKS
LOUISVILLE/SDF MOCLDY    86  72  62 S12       30.07F HX  92
LOUISVILLE/LOU PTCLDY    85  73  67 S5        30.08F HX  91
FORT KNOX      PTCLDY    84  75  75 S8        30.08S HX  92
$$

KYZ035>037-039>044-047>052-055>060-089>105-250100-
NORTHEAST KENTUCKY

CITY           SKY/WX    TMP DP  RH WIND       PRES   REMARKS
LEXINGTON      CLEAR     83  71  67 S9        30.13S
COVINGTON      CLOUDY    83  73  72 S8        30.07F
FRANKFORT      CLEAR     85  70  60 S10       30.10F
$$

KYZ054-064>069-076>088-106>120-250100-
SOUTHEAST KENTUCKY

CITY           SKY/WX    TMP DP  RH WIND       PRES   REMARKS
JACKSON        PTCLDY    81  70  69 CALM      30.18S
LONDON         CLEAR     84  69  60 SW3       30.17R
SOMERSET       NOT AVBL
MIDDLESBORO    CLEAR     81  74  79 CALM      30.18R
MONTICELLO     CLEAR    N/A N/A N/A W13       30.18R
$$





USA.gov is the U.S. government's official web portal to all federal, state and local government web resources and services.